Bainbridge, GA

1:26 PM EDT on March 28, 2017 (GMT -0400)
Decatur County Industrial

Weather History for KBGE - December, 2011

Change the Weather History Date:

Wednesday, December 14, 2011

  Actual Average (KABY) Record (KABY)
Temperature  
Mean Temperature 58 °F -  
Max Temperature 75 °F 60 °F 80 °F (1931)
Min Temperature 42 °F 37 °F 19 °F (1960)
Degree Days  
Heating Degree Days 6    
Growing Degree Days 8 (Base 50)    
Moisture  
Dew Point 50 °F    
Average Humidity 79    
Maximum Humidity 100    
Minimum Humidity 44    
Precipitation  
Precipitation 0.00 in - - ()
Sea Level Pressure  
Sea Level Pressure 30.32 in    
Wind  
Wind Speed 2 mph (ESE)    
Max Wind Speed 9 mph    
Max Gust Speed -    
Visibility 10 miles    
Events      
Averages and records for this station are not official NWS values.
T = Trace of Precipitation, MM = Missing Value Source: NWS Daily Summary

Daily Weather History Graph

Daily Weather History Graph

Search for Another Location

Airport or City:

Trip Planner

Search our weather history database for the weather conditions in past years. The results will help you decide how hot, cold, wet, or windy it might be!

Date:

Astronomy

Dec. 14, 2011 Rise Set
Actual Time 7:28 AM EST 5:37 PM EST
Civil Twilight 7:01 AM EST 6:04 PM EST
Nautical Twilight 6:31 AM EST 6:34 PM EST
Astronomical Twilight 6:02 AM EST 7:04 PM EST
Moon 9:44 PM EST (12/14) 10:22 AM EST (12/14)
Length of Visible Light 11h 02m
Length of Day
10h 09m
Waning Gibbous, 83% of the Moon is Illuminated
Dec 14
Waning Gibbous
Dec 17
Last Quarter
Dec 24
New
Jan 1
First Quarter
Jan 9
Full

Hourly Weather History & Observations

Time (EST) Temp. Windchill Dew Point Humidity Pressure Visibility Wind Dir Wind Speed Gust Speed Precip Events Conditions
12:15 AM 50.0 °F - 50.0 °F 100% 30.37 in 10.0 mi East 3.5 mph - N/A   Clear
12:35 AM 50.0 °F - 50.0 °F 100% 30.37 in 10.0 mi Calm Calm - N/A   Clear
12:55 AM 50.0 °F - 50.0 °F 100% 30.36 in 10.0 mi Calm Calm - N/A   Clear
1:15 AM 50.0 °F - 50.0 °F 100% 30.35 in 10.0 mi Calm Calm - N/A   Clear
1:35 AM 50.0 °F - 50.0 °F 100% 30.35 in 10.0 mi Calm Calm - N/A   Clear
1:55 AM 50.0 °F - 50.0 °F 100% 30.35 in 10.0 mi Calm Calm - N/A   Clear
2:15 AM 46.4 °F - 46.4 °F 100% 30.35 in 10.0 mi Calm Calm - N/A   Clear
2:35 AM 46.4 °F - 46.4 °F 100% 30.34 in 10.0 mi Calm Calm - N/A   Clear
2:55 AM 44.6 °F - 44.6 °F 100% 30.34 in 10.0 mi Calm Calm - N/A   Clear
3:15 AM 46.4 °F - 46.4 °F 100% 30.34 in 10.0 mi Calm Calm - N/A   Clear
3:35 AM 46.4 °F - 46.4 °F 100% 30.34 in 10.0 mi Calm Calm - N/A   Clear
3:55 AM 46.4 °F - 46.4 °F 100% 30.34 in 10.0 mi Calm Calm - N/A   Clear
4:15 AM 44.6 °F - 44.6 °F 100% 30.34 in 10.0 mi Calm Calm - N/A   Clear
4:35 AM 46.4 °F - 46.4 °F 100% 30.34 in 10.0 mi Calm Calm - N/A   Clear
4:55 AM 44.6 °F - 44.6 °F 100% 30.33 in 10.0 mi Calm Calm - N/A   Clear
5:15 AM 44.6 °F - 44.6 °F 100% 30.33 in 10.0 mi Calm Calm - N/A   Clear
5:35 AM 42.8 °F 41.1 °F 42.8 °F 100% 30.33 in 10.0 mi East 3.5 mph - N/A   Clear
5:55 AM 42.8 °F - 42.8 °F 100% 30.33 in 10.0 mi Calm Calm - N/A   Clear
6:35 AM 42.8 °F - 42.8 °F 100% 30.33 in 10.0 mi Calm Calm - N/A   Clear
6:55 AM 42.8 °F - 42.8 °F 100% 30.34 in 10.0 mi Calm Calm - N/A   Clear
7:15 AM 42.8 °F - 42.8 °F 100% 30.34 in 10.0 mi Calm Calm - N/A   Clear
7:35 AM 42.8 °F - 42.8 °F 100% 30.35 in 7.0 mi Calm Calm - N/A   Clear
7:55 AM 44.6 °F - 44.6 °F 100% 30.35 in 5.0 mi Calm Calm - N/A   Clear
8:15 AM 46.4 °F - 46.4 °F 100% 30.36 in 7.0 mi Calm Calm - N/A   Clear
8:35 AM 50.0 °F - 50.0 °F 100% 30.36 in 10.0 mi Calm Calm - N/A   Clear
8:55 AM 51.8 °F - 51.8 °F 100% 30.36 in 10.0 mi East 4.6 mph - N/A   Clear
9:15 AM 53.6 °F - 51.8 °F 94% 30.36 in 10.0 mi East 4.6 mph - N/A   Clear
9:35 AM 57.2 °F - 51.8 °F 82% 30.36 in 10.0 mi East 4.6 mph - N/A   Clear
10:15 AM 62.6 °F - 50.0 °F 63% 30.37 in 10.0 mi ESE 4.6 mph - N/A   Clear
10:35 AM 64.4 °F - 50.0 °F 59% 30.36 in 10.0 mi ESE 4.6 mph - N/A   Clear
11:15 AM 69.8 °F - 51.8 °F 53% 30.36 in 10.0 mi SE 4.6 mph - N/A   Clear
11:35 AM 69.8 °F - 51.8 °F 53% 30.35 in 10.0 mi ESE 8.1 mph - N/A   Clear
11:55 AM 71.6 °F - 53.6 °F 53% 30.34 in 10.0 mi SE 6.9 mph - N/A   Clear
12:15 PM 73.4 °F - 53.6 °F 50% 30.33 in 10.0 mi SSE 4.6 mph - N/A   Clear
12:35 PM 73.4 °F - 53.6 °F 50% 30.32 in 10.0 mi SE 6.9 mph - N/A   Clear
12:55 PM 73.4 °F - 53.6 °F 50% 30.30 in 10.0 mi ESE 6.9 mph - N/A   Clear
1:15 PM 73.4 °F - 53.6 °F 50% 30.29 in 10.0 mi South 9.2 mph - N/A   Clear
1:35 PM 73.4 °F - 53.6 °F 50% 30.28 in 10.0 mi SE 6.9 mph - N/A   Clear
1:55 PM 73.4 °F - 53.6 °F 50% 30.28 in 10.0 mi South 4.6 mph - N/A   Clear
2:15 PM 73.4 °F - 53.6 °F 50% 30.27 in 10.0 mi ESE 4.6 mph - N/A   Clear
2:35 PM 75.2 °F - 53.6 °F 47% 30.27 in 10.0 mi East 6.9 mph - N/A   Clear
3:15 PM 75.2 °F - 51.8 °F 44% 30.26 in 10.0 mi SSE 8.1 mph - N/A   Clear
3:35 PM 73.4 °F - 51.8 °F 47% 30.26 in 10.0 mi SE 4.6 mph - N/A   Clear
3:55 PM 73.4 °F - 51.8 °F 47% 30.25 in 10.0 mi South 5.8 mph - N/A   Clear
4:15 PM 73.4 °F - 51.8 °F 47% 30.26 in 10.0 mi SE 5.8 mph - N/A   Clear
4:35 PM 73.4 °F - 53.6 °F 50% 30.26 in 10.0 mi SE 4.6 mph - N/A   Clear
4:55 PM 71.6 °F - 53.6 °F 53% 30.25 in 10.0 mi SE 4.6 mph - N/A   Clear
5:15 PM 69.8 °F - 51.8 °F 53% 30.26 in 10.0 mi ESE 3.5 mph - N/A   Clear
5:35 PM 69.8 °F - 55.4 °F 60% 30.26 in 10.0 mi Calm Calm - N/A   Clear
5:55 PM 64.4 °F - 53.6 °F 68% 30.26 in 10.0 mi Calm Calm - N/A   Clear
6:15 PM 64.4 °F - 53.6 °F 68% 30.27 in 10.0 mi Calm Calm - N/A   Clear
6:35 PM 62.6 °F - 53.6 °F 72% 30.27 in 10.0 mi Calm Calm - N/A   Clear
6:55 PM 60.8 °F - 53.6 °F 77% 30.27 in 10.0 mi Calm Calm - N/A   Clear
7:15 PM 59.0 °F - 53.6 °F 82% 30.28 in 10.0 mi Calm Calm - N/A   Clear
7:55 PM 57.2 °F - 51.8 °F 82% 30.28 in 10.0 mi Calm Calm - N/A   Clear
8:15 PM 59.0 °F - 53.6 °F 82% 30.28 in 10.0 mi East 3.5 mph - N/A   Clear
8:35 PM 57.2 °F - 53.6 °F 88% 30.28 in 10.0 mi East 3.5 mph - N/A   Clear
8:55 PM 57.2 °F - 53.6 °F 88% 30.28 in 10.0 mi Calm Calm - N/A   Clear
9:35 PM 55.4 °F - 53.6 °F 94% 30.28 in 10.0 mi Calm Calm - N/A   Clear
9:55 PM 57.2 °F - 53.6 °F 88% 30.28 in 10.0 mi Calm Calm - N/A   Clear
10:15 PM 57.2 °F - 53.6 °F 88% 30.28 in 10.0 mi Calm Calm - N/A   Clear
10:35 PM 57.2 °F - 53.6 °F 88% 30.28 in 10.0 mi Calm Calm - N/A   Clear
10:55 PM 57.2 °F - 53.6 °F 88% 30.28 in 10.0 mi Calm Calm - N/A   Clear
11:15 PM 53.6 °F - 51.8 °F 94% 30.28 in 10.0 mi Calm Calm - N/A   Clear
11:35 PM 53.6 °F - 51.8 °F 94% 30.28 in 10.0 mi Calm Calm - N/A   Clear
11:55 PM 53.6 °F - 51.8 °F 94% 30.28 in 10.0 mi Calm Calm - N/A   Clear